Location: Newark
(49.3667°N, 21.6167°E)
Time: 02:36:48
(UTC+00:00)

Envisat - Pass Details

Date: 13 December 2019
Orbit: 764 x 766 km, 98.1° (Epoch: 23 January)

Event Time Altitude Azimuth Distance (km) Brightness Sun altitude
Rises 17:25:18 0° 199° (SSW) 3,222 6.5 -26.6°
Reaches altitude 10° 17:27:58 10° 212° (SSW) 2,301 5.9 -27.0°
Maximum altitude 17:32:09 26° 267° (W) 1,493 5.1 -27.7°
Drops below altitude 10° 17:36:23 10° 324° (NW) 2,315 5.8 -28.4°
Sets 17:39:05 0° 337° (NNW) 3,247 6.5 -28.8°
